Regional Weather Roundup
Issued by NWS

Home | Current Version | Previous Version | Graphics & Text | Print | Product List | Glossary On
Versions: 1 2 3 4 5 6 7 8 9 10 11 12 13 14 15 16 17 18 19 20 21 22 23 24 25 26 27 28 29 30 31 32 33 34 35 36 37 38 39 40 41 42 43 44 45 46 47 48 49 50
000
ASUS43 KDMX 221201
RWRIA

WEATHER ROUNDUP FOR IOWA
NATIONAL WEATHER SERVICE DES MOINES IA
600 AM CST WED FEB 22 2017

NOTE: "FAIR" INDICATES FEW OR NO CLOUDS BELOW 12,000 FEET WITH NO
SIGNIFICANT WEATHER AND/OR OBSTRUCTIONS TO VISIBILITY.

* - THESE STATIONS ARE NOT NWS STATIONS...THUS NOT UNDER NWS
QUALITY CONTROL.  THEY ALSO DO NOT REPORT WEATHER SUCH
AS PRECIPITATION OR FOG.

IAZ001>003-012>014-020>022-031>034-043>046-221300-
   NORTHWEST IOWA

CITY           SKY/WX    TMP DP  RH WIND       PRES   REMARKS
CARROLL *      CLEAR     46  37  71 SW17      29.66S
CHEROKEE *     PTCLDY    41  34  76 S6        29.63F
DENISON *      PTCLDY    45  36  70 S7        29.66F
LE MARS *      CLEAR     37  34  87 S10       29.64R WCI  30
ORANGE CITY *  CLEAR     37  36  93 S5        29.62S WCI  34
SHELDON *      CLEAR     36  36 100 SE6       29.60F WCI  31
SIOUX CITY     CLEAR     37  31  78 E6        29.64F WCI  32
6HR MIN TEMP:  35; 6HR MAX TEMP:  54;

SPENCER        CLEAR     33  30  88 S6        29.61F WCI  28
6HR MIN TEMP:  31; 6HR MAX TEMP:  48;

STORM LAKE *   PTCLDY    45  34  65 SW15      29.64F
$$

IAZ055>058-069>071-079>083-090>094-221300-
   SOUTHWEST IOWA

CITY           SKY/WX    TMP DP  RH WIND       PRES   REMARKS
ATLANTIC *     CLEAR     45  36  70 S13       29.70F
CLARINDA *     CLEAR     39  32  75 SW5       29.76S
COUNCIL BLFS * CLEAR     52  36  54 SW16      29.68F
CRESTON *      CLEAR     41  34  75 S10       29.75S
HARLAN  *      CLEAR     39  36  87 CALM      29.73F
LAMONI         CLEAR     44  35  70 S9        29.76S
6HR MIN TEMP:  44; 6HR MAX TEMP:  50;

RED OAK *      CLEAR     39  34  81 S7        29.72F WCI  34
SHENANDOAH *   CLEAR     37  34  87 CALM      29.74F
$$

IAZ047>049-059>061-072>074-084-221300-
   CENTRAL IOWA

CITY           SKY/WX    TMP DP  RH WIND       PRES   REMARKS
AMES           PTCLDY    45  36  70 SW9       29.69R
6HR MIN TEMP:  42; 6HR MAX TEMP:  48;

ANKENY *       CLEAR     52  32  46 SW12      29.71S
BOONE *        CLEAR     48  36  61 SW13      29.68R
CHARITON *     CLEAR     45  37  76 S12       29.74F
DES MOINES     CLEAR     48  32  53 S10       29.71F
6HR MIN TEMP:  47; 6HR MAX TEMP:  52;

GRINNELL*      CLEAR     45  37  76 S12       29.73S
KNOXVILLE *    CLEAR     50  36  57 S10       29.72F
MARSHALLTOWN   CLEAR     50  35  56 SW14      29.67F
6HR MIN TEMP:  46; 6HR MAX TEMP:  50;

NEWTON *       CLEAR     46  36  66 S12       29.71S
PELLA *        CLEAR     49  38  64 S9        29.74S
PERRY *          N/A     47  37  66 SW14      29.68S
$$

IAZ004>006-015-016-023>025-035-036-221300-
   NORTH CENTRAL IOWA

CITY           SKY/WX    TMP DP  RH WIND       PRES   REMARKS
ALGONA *       CLEAR     39  36  87 S8G16     29.64F WCI  34
CLARION *      CLEAR     37  36  93 S12       29.65F WCI  30
ESTHERVILLE    CLEAR     38  33  82 S10       29.59F WCI  31
6HR MIN TEMP:  37; 6HR MAX TEMP:  48;

FORT DODGE *   CLEAR     43  34  70 S5        29.66F
MASON CITY     CLEAR     36  32  85 S7        29.66S WCI  30
6HR MIN TEMP:  36; 6HR MAX TEMP:  44;

FOREST CITY *    N/A     32  32 100 CALM      29.64F
WEBSTER CITY * CLEAR     45  36  70 S15       29.64F
IOWA FALLS *     N/A     41  34  76 S8        29.68S
$$

IAZ007>011-017>019-026>030-037>042-050>054-066-221300-
   NORTHEAST IOWA

CITY           SKY/WX    TMP DP  RH WIND       PRES   REMARKS
CEDAR RAPIDS   CLEAR     46  46 100 S12       29.73F
6HR MIN TEMP:  43; 6HR MAX TEMP:  46;

CHARLES CITY *   N/A     39  36  87 S10       29.66F WCI  32
CLINTON *      FOG       50  50 100 SW9       29.78S VSB 1/4
DECORAH *      CLEAR     45  34  65 S7        29.66F
DUBUQUE        FOG       43  43 100 SW12      29.73F VSB 1/4
6HR MIN TEMP:  42; 6HR MAX TEMP:  47;

MONTICELLO *   CLEAR     46  46 100 S6        29.74F FOG
OELWEIN *      CLEAR     39  36  87 S8        29.70S WCI  34
WATERLOO       PTCLDY    46  33  60 VRB5      29.68S
6HR MIN TEMP:  41; 6HR MAX TEMP:  47;

$$

IAZ064-065-067-068-078-221300-
   EAST CENTRAL IOWA

CITY           SKY/WX    TMP DP  RH WIND       PRES   REMARKS
DAVENPORT      CLOUDY    52  52 100 S10       29.78S FOG
6HR MIN TEMP:  44; 6HR MAX TEMP:  53;

IOWA CITY      FOG       39  38  96 CALM      29.77F VSB 1/4
6HR MIN TEMP:  38; 6HR MAX TEMP:  46;

MUSCATINE *    FOG       41  41 100 CALM      29.79S VSB<1/4
QUAD CITIES    CLOUDY    53  51  93 SW9       29.78S FOG
6HR MIN TEMP:  46; 6HR MAX TEMP:  56;

$$

IAZ062-063-075>077-085>089-095>099-221300-
   SOUTHEAST IOWA

CITY           SKY/WX    TMP DP  RH WIND       PRES   REMARKS
BURLINGTON     FOG       52  52 100 S9        29.80S VSB 1/4
6HR MIN TEMP:  51; 6HR MAX TEMP:  54;

FAIRFIELD *    CLEAR     48  48 100 S9        29.76F FOG
KEOKUK *       FOG       52  52 100 SW10      29.81R VSB<1/4
OTTUMWA        CLEAR     47  44  90 S10       29.75F
6HR MIN TEMP:  43; 6HR MAX TEMP:  49;

WASHINGTON *   CLEAR     50  50 100 S12       29.77F FOG
$$

ABBREVIATIONS USED IN REMARKS
   TC - TEMPERATURES IN CELSIUS
  WCI - WIND CHILL INDEX
   HX - HEAT INDEX
  VSB - VISIBILITY
$$




USA.gov is the U.S. government's official web portal to all federal, state and local government web resources and services.